THOR ABLESTAR DEB, 134

Orbit data source: Space-Track

THOR ABLESTAR DEB, 134 is space debris in LEO originally from a launch on Thu, 29 Jun 1961 UTC launched from the Air Force Eastern Test Range (AFETR). Debris objects in space refer to the collection of defunct objects orbiting the Earth. Examples of debris include non-operational satellites, rocket bodies, and fragments generated from explosions, collisions, or faulty payload assembly.

Loading next visibility...
Identifier
134, 1961-015U
Orbit
LEO
Last TLE update
1 day ago
Origin
Manufacturer
Unknown
Mission
Spacecraft
Bus & Motor
Unknown
Mass
Unknown
Launch date (UTC)
1961-06-29 (64 years ago)
Launch vehicle
Unknown
Launch site
Air Force Eastern Test Range (AFETR)
Object type
Payload
Rocket body
Debris
Shape & HBR
Unknown
Radar Cross Section
1.600 m², Large (>1 m²)

Expand to show TLE details & history

TLE from 1 day ago
0 THOR ABLESTAR DEB
1 00134U 61015U   25199.54812070  .00000072  00000-0  10315-3 0  9996
2 00134  66.8797 148.1631 0074638  70.7735 290.1405 13.97620824259070
Epoch: 2025-07-18T13:09Z
TLE epoch observation values (Epoch: 2025-07-18T13:09:17.628Z)
Latitude
0.00003°
Longitude
14.24166°
Altitude
885.781 km
Speed
7.419 km/s
True Right ascension
09h 52m 39s
True Declination
0° 00' 00"
Sunlit
Object was in daylight at epoch
Visualization orbit readout
Latitude
30.97279°
Longitude
176.761°
Altitude
891.68 km
Speed
7.416 km/s
Apparent Right ascension
18h 51m 51s
Apparent Declination
-2° 06' 31"
Sunlit
Object is in full shadow
Visualization observer readout
Local Sidereal Time
04:26:34
Azimuth
309.529° NW
Elevation
-39.878°
Doppler factor
1
Orbital elements
Apogee altitude
954.75 km
Perigee altitude
846.099 km
Semi-major axis
7,278.561 km
Eccentricity
0.00746
Inclination
66.8797°
RAAN
148.1631°
Arg. of periapsis
70.7735°
True anomaly
289.33495°
Mean anomaly
290.1405°
Eccentric anomaly
289.73798°
Mean motion
3.49522 °/min
Orbital period
103 mins
BSTAR
0.00010315
Loading maneuver chart data...
Loading SW <> Apogee altitude chart data...
|